TOURFACTS.DK  
Stats and Facts from Tour de France.

Tour de France 2018 starts in 257 days
  Riders   Stages   Teams   Summits   Yearly  


 
Search by year

 2017 - St. 21:  14824 starters.
  5131 different riders.
  634 teams.
  2232 stages.
  454 restdays.
  439589.60 km.
  5653 abandonnees.


Top 3
Christopher Froome86:20:55
Rigoberto Uran86:21:49
Romain Bardet86:23:15
Warren Barguil169 pt.
Primoz Roglic80 pt.
Thomas De Gendt64 pt.
Michael Matthews359 pt.
André Greipel234 pt.
Edvald Boasson Hagen220 pt.
Simon Yates86:27:09
Louis Meintjes86:29:15
Emanuel Buchmann86:54:16
Facts from Tour de France 2009
  |   Stages.  |   Stage winners.  |   Days in yellow  |   Average speed.  |   Route.  |   Teams.  |   All riders.  |   Rookies.  |   Withdrawls.  |  

  |   GC.  |   Polka  |   Green  |   White  |   Summits. (In tour)  |   Summits. (Points)  |   Miscellaneous.  |  

Stage 6 on 09 - 07 - 2009
         Owning:    Fabian Cancellara    
Pick a stage:  1 2 3 4 5 6 7 8 9 10 11 12 13 14 15 16 17 18 19 20 21
  GironaBarcelona | Dist: 181.50 km.
Cat: 4Sant Feliu de GuixolsRUSAlexandre Botcharov
3 points
 
Cat: 4Côte de Tossa de MarFRAStéphane Auge
3 points
 
Cat: 3Sant Vicenc de MontaltFRAStéphane Auge
4 points
 
Cat: 3CollsacreuFRAStéphane Auge
4 points
 
Cat: 4Côte de ConreriaMLTDavid Millar
3 points
 

Average speed for all riders in stage:  41,235 km./hr.
    Place:Name:Team:Time:Km/h:
NORThor HushovdCHECervelo Test Team04:21:33  +  00:00:00=41,636 
ESPOscar FreireNLDRabobank04:21:33  +  00:00:00=41,636 
ESPJosé Joaquin RojasESPCaisse d´Epargne04:21:33  +  00:00:00=41,636 
4 GERGerald CiolekDEUTeam Milram04:21:33  +  00:00:00=41,636 
5 ITAFranco PellizottiITALiquigas04:21:33  +  00:00:00=41,636 
6 ITAFilippo PozzatoRUSTeam Katusha04:21:33  +  00:00:00=41,636 
7 ITAAlessandro BallanITALampre-N.G.C04:21:33  +  00:00:00=41,636 
8 ITARinaldo NocentiniFRAAg2r La Mondiale04:21:33  +  00:00:00=41,636 
9 AUSCadel EvansBELSilence-Lotto04:21:33  +  00:00:00=41,636 
10 SUIFabian CancellaraDNKTeam Saxo Bank04:21:33  +  00:00:00=41,636 
11 GERAndréas KlödenKAZAstana Pro Team04:21:33  +  00:00:00=41,636 
12 FRANicolas RocheFRAAg2r La Mondiale04:21:33  +  00:00:00=41,636 
13 LUXAndy SchleckDNKTeam Saxo Bank04:21:33  +  00:00:00=41,636 
14 ITAVincenzo NibaliITALiquigas04:21:33  +  00:00:00=41,636 
15 BELSébastien RosselerBELQuick Step04:21:33  +  00:00:00=41,636 
16 IOMMark CavendishUSATeam Columbia-HTC04:21:33  +  00:00:00=41,636 
17 FRAJérôme PineauBELQuick Step04:21:33  +  00:00:00=41,636 
18 USAGeorge HincapieUSATeam Columbia-HTC04:21:33  +  00:00:00=41,636 
19 CZERoman KreuzigerITALiquigas04:21:33  +  00:00:00=41,636 
20 USALevi LeipheimerKAZAstana Pro Team04:21:33  +  00:00:00=41,636 
21 GERLinus GerdemannDEUTeam Milram04:21:33  +  00:00:00=41,636 
22 BELGreg Van AvermaetBELSilence-Lotto04:21:33  +  00:00:00=41,636 
23 ESPAlberto ContadorKAZAstana Pro Team04:21:33  +  00:00:00=41,636 
24 BELBradley WigginsUSAGarmin-Slipstream04:21:33  +  00:00:00=41,636 
25 LUXFränk SchleckDNKTeam Saxo Bank04:21:33  +  00:00:00=41,636 
26 RUSAlexandre BotcharovRUSTeam Katusha04:21:33  +  00:00:00=41,636 
27 USALance ArmstrongKAZAstana Pro Team04:21:33  +  00:00:00=41,636 
28 ESPLuis León SánchezESPCaisse d´Epargne04:21:33  +  00:00:00=41,636 
29 GERTony MartinUSATeam Columbia-HTC04:21:33  +  00:00:00=41,636 
30 ESPCarlos SastreCHECervelo Test Team04:21:33  +  00:00:00=41,636 
31 FRAChristophe Le MevelFRAFrancaise Des Jeux04:21:33  +  00:00:00=41,636 
32 ESPÓscar PereiroESPCaisse d´Epargne04:21:33  +  00:00:00=41,636 
33 NZLJulian DeanUSAGarmin-Slipstream04:21:33  +  00:00:00=41,636 
34 NEDMartijn MaaskantUSAGarmin-Slipstream04:21:33  +  00:00:00=41,636 
35 BELMaxime MonfortUSATeam Columbia-HTC04:21:33  +  00:00:00=41,636 
36 USAChristian VandeveldeUSAGarmin-Slipstream04:21:33  +  00:00:00=41,636 
37 GERJens VoigtDNKTeam Saxo Bank04:21:33  +  00:00:00=41,636 
38 SWEGustav LarssonDNKTeam Saxo Bank04:21:33  +  00:00:00=41,636 
39 GERChristian KneesDEUTeam Milram04:21:33  +  00:00:00=41,636 
40 LUXKim KirchenUSATeam Columbia-HTC04:21:33  +  00:00:00=41,636 
41 RUSVladimir EfimkinFRAAg2r La Mondiale04:21:33  +  00:00:00=41,636 
42 COLRigoberto UranESPCaisse d´Epargne04:21:33  +  00:00:00=41,636 
43 ITAMarzio BruseghinITALampre-N.G.C04:21:33  +  00:00:00=41,636 
44 ESPCarlos BarredoBELQuick Step04:21:42  +  00:00:09=41,613 
45 SVKPeter VelitsDEUTeam Milram04:21:42  +  00:00:09=41,613 
46 FRARomain FeilluFRAAgritubel04:21:42  +  00:00:09=41,613 
47 UKRYaroslav PopovychKAZAstana Pro Team04:21:42  +  00:00:09=41,613 
48 AUSBrett LancasterCHECervelo Test Team04:21:48  +  00:00:15=41,597 
49 NEDKoen De KortNLDSkil-Shimano04:22:12  +  00:00:39=41,533 
50 BELStijn VandenberghRUSTeam Katusha04:22:19  +  00:00:46=41,515 
51 FRAArnaud CoyotESPCaisse d´Epargne04:22:19  +  00:00:46=41,515 
52 GERSebastian LangBELSilence-Lotto04:22:23  +  00:00:50=41,504 
53 BLRAliaksandr KuchynskiITALiquigas04:22:23  +  00:00:50=41,504 
54 NORKurt Asle ArvesenDNKTeam Saxo Bank04:22:23  +  00:00:50=41,504 
55 FRAJérémy RoyFRAFrancaise Des Jeux04:22:23  +  00:00:50=41,504 
56 GERBert GrabschUSATeam Columbia-HTC04:22:23  +  00:00:50=41,504 
57 FRASandy CasarFRAFrancaise Des Jeux04:22:23  +  00:00:50=41,504 
58 FRAStéphane GoubertFRAAg2r La Mondiale04:22:23  +  00:00:50=41,504 
59 BELJurgen Van Den BroeckBELSilence-Lotto04:22:23  +  00:00:50=41,504 
60 ESPJose Luis ArrietaFRAAg2r La Mondiale04:22:23  +  00:00:50=41,504 
61 ESPJosé Ivan GutierrezESPCaisse d´Epargne04:22:23  +  00:00:50=41,504 
62 FINJussi VeikkanenFRAFrancaise Des Jeux04:22:23  +  00:00:50=41,504 
63 FRABrice FeilluFRAAgritubel04:22:23  +  00:00:50=41,504 
64 ESPHaimar ZubeldiaKAZAstana Pro Team04:22:23  +  00:00:50=41,504 
65 GERMarkus FothenDEUTeam Milram04:22:23  +  00:00:50=41,504 
66 ARGJuan Antonio FlechaNLDRabobank04:22:23  +  00:00:50=41,504 
67 FRASébastien MinardFRACofidis Le Credit En Ligne04:22:23  +  00:00:50=41,504 
68 FRAThierry HupondNLDSkil-Shimano04:22:31  +  00:00:58=41,483 
69 RUSNikolai TrusovRUSTeam Katusha04:22:31  +  00:00:58=41,483 
70 ESPLuis RodriguezESPCaisse d´Epargne04:22:31  +  00:00:58=41,483 
71 FRAGeoffroy LequatreFRAAgritubel04:22:31  +  00:00:58=41,483 
72 FRASamuel DumoulinFRACofidis Le Credit En Ligne04:22:31  +  00:00:58=41,483 
73 ITAMarco BandieraITALampre-N.G.C04:22:31  +  00:00:58=41,483 
74 RUSDenis MenchovNLDRabobank04:22:33  +  00:01:00=41,478 
75 ESPMikel AstarlozaESPEuskaltel - Euskadi04:22:41  +  00:01:08=41,457 
76 FRALaurent LefèvreFRABbox Bouygues Telecom04:22:41  +  00:01:08=41,457 
77 ESPDavid ArroyoESPCaisse d´Epargne04:22:41  +  00:01:08=41,457 
78 FRAChristophe MoreauFRAAgritubel04:22:41  +  00:01:08=41,457 
79 DENNicki SørensenDNKTeam Saxo Bank04:22:41  +  00:01:08=41,457 
80 FRAJérôme CoppelFRAFrancaise Des Jeux04:22:41  +  00:01:08=41,457 
81 FRARémi PauriolFRACofidis Le Credit En Ligne04:22:41  +  00:01:08=41,457 
82 RUSVladimir KarpetsRUSTeam Katusha04:22:41  +  00:01:08=41,457 
83 FRAAmaël MoinardFRACofidis Le Credit En Ligne04:22:41  +  00:01:08=41,457 
84 FRASylvain CalzatiFRAAgritubel04:22:41  +  00:01:08=41,457 
85 FRADavid MoncoutiéFRACofidis Le Credit En Ligne04:22:41  +  00:01:08=41,457 
86 CANRyder HesjedalUSAGarmin-Slipstream04:22:41  +  00:01:08=41,457 
87 FRALloyd MondoryFRAAg2r La Mondiale04:22:41  +  00:01:08=41,457 
88 GERJohannes FröhlingerDEUTeam Milram04:22:41  +  00:01:08=41,457 
89 BELFrederik WillemsITALiquigas04:22:41  +  00:01:08=41,457 
90 NEDSteven de JonghBELQuick Step04:22:41  +  00:01:08=41,457 
91 AUTPeter WrolichDEUTeam Milram04:22:49  +  00:01:16=41,436 
92 ESPBingen FernandezFRACofidis Le Credit En Ligne04:22:49  +  00:01:16=41,436 
93 AUSStuart O'GradyDNKTeam Saxo Bank04:22:49  +  00:01:16=41,436 
94 COLLeonardo DuqueFRACofidis Le Credit En Ligne04:22:49  +  00:01:16=41,436 
95 MLTDavid MillarUSAGarmin-Slipstream04:22:52  +  00:01:19=41,428 
96 ESPIgor AntonESPEuskaltel - Euskadi04:22:54  +  00:01:21=41,423 
97 GERFabian WegmannDEUTeam Milram04:22:54  +  00:01:21=41,423 
98 ESPJuan José OrozESPEuskaltel - Euskadi04:23:00  +  00:01:27=41,407 
99 FRAPierre RollandFRABbox Bouygues Telecom04:23:03  +  00:01:30=41,399 
100 FRADavid Le LayFRAAgritubel04:23:08  +  00:01:35=41,386 
101 GERSimon GeschkeNLDSkil-Shimano04:23:08  +  00:01:35=41,386 
102 ITADaniele RighiITALampre-N.G.C04:23:08  +  00:01:35=41,386 
103 USADavid ZabriskieUSAGarmin-Slipstream04:23:08  +  00:01:35=41,386 
104 FRAAnthony GeslinFRAFrancaise Des Jeux04:23:28  +  00:01:55=41,334 
105 FRANicolas VogondyFRAAgritubel04:23:28  +  00:01:55=41,334 
106 ESPEgoi MartínezESPEuskaltel - Euskadi04:23:28  +  00:01:55=41,334 
107 ESPGorka VerdugoESPEuskaltel - Euskadi04:23:28  +  00:01:55=41,334 
108 NZLHayden RoulstonCHECervelo Test Team04:23:28  +  00:01:55=41,334 
109 ESPJuan Manuel GarateNLDRabobank04:23:28  +  00:01:55=41,334 
110 DENChris Anker SørensenDNKTeam Saxo Bank04:23:28  +  00:01:55=41,334 
111 ESPAmets TxurrukaESPEuskaltel - Euskadi04:23:28  +  00:01:55=41,334 
112 FRASylvain ChavanelBELQuick Step04:23:28  +  00:01:55=41,334 
113 ESPAlan PerezESPEuskaltel - Euskadi04:23:28  +  00:01:55=41,334 
114 FRAPierrick FédrigoFRABbox Bouygues Telecom04:23:28  +  00:01:55=41,334 
115 FRAMaxime BouetFRAAgritubel04:23:28  +  00:01:55=41,334 
116 ESPEduardo GonzaloFRAAgritubel04:23:28  +  00:01:55=41,334 
117 FRAMickael DelageBELSilence-Lotto04:23:28  +  00:01:55=41,334 
118 ESPRuben PerezESPEuskaltel - Euskadi04:23:28  +  00:01:55=41,334 
119 UKRVolodymir GustovCHECervelo Test Team04:23:28  +  00:01:55=41,334 
120 BELStijn DevolderBELQuick Step04:23:28  +  00:01:55=41,334 
121 BELJohan VansummerenBELSilence-Lotto04:23:28  +  00:01:55=41,334 
122 SLOSimon SpilakITALampre-N.G.C04:23:28  +  00:01:55=41,334 
123 ITADaniele BennatiITALiquigas04:23:28  +  00:01:55=41,334 
124 DENBrian VandborgITALiquigas04:23:28  +  00:01:55=41,334 
125 ITAMatteo TosattoBELQuick Step04:23:28  +  00:01:55=41,334 
126 PORSergio PaulinhoKAZAstana Pro Team04:23:28  +  00:01:55=41,334 
127 SUIGregory RastKAZAstana Pro Team04:23:28  +  00:01:55=41,334 
128 SUIDavid LoosliITALampre-N.G.C04:23:28  +  00:01:55=41,334 
129 AUSMatthew LloydBELSilence-Lotto04:23:28  +  00:01:55=41,334 
130 GERGrischa NiermannNLDRabobank04:23:28  +  00:01:55=41,334 
131 AUTBernhard EiselUSATeam Columbia-HTC04:23:28  +  00:01:55=41,334 
132 FRAHubert DupontFRAAg2r La Mondiale04:23:45  +  00:02:12=41,289 
133 FRAChristophe RiblonFRAAg2r La Mondiale04:23:45  +  00:02:12=41,289 
134 FRACyril DesselFRAAg2r La Mondiale04:23:45  +  00:02:12=41,289 
135 RUSSerguei IvanovRUSTeam Katusha04:24:07  +  00:02:34=41,232 
136 KAZDmitriy MuravyevKAZAstana Pro Team04:24:15  +  00:02:42=41,211 
137 POLMarcin SapaITALampre-N.G.C04:26:50  +  00:05:17=40,812 
138 FRACyril LemoineNLDSkil-Shimano04:26:50  +  00:05:17=40,812 
139 PORRui CostaESPCaisse d´Epargne04:26:50  +  00:05:17=40,812 
140 NEDLaurens ten DamNLDRabobank04:28:28  +  00:06:55=40,564 
141 NEDJoost PosthumaNLDRabobank04:28:28  +  00:06:55=40,564 
142 FRASébastien JolyFRAFrancaise Des Jeux04:28:28  +  00:06:55=40,564 
143 FRAStéphane AugeFRACofidis Le Credit En Ligne04:28:28  +  00:06:55=40,564 
144 NEDNiki TerpstraDEUTeam Milram04:28:28  +  00:06:55=40,564 
145 FRAAlexandre PichotFRABbox Bouygues Telecom04:28:28  +  00:06:55=40,564 
146 FINCharles WegeliusBELSilence-Lotto04:28:28  +  00:06:55=40,564 
147 RUSYury TrofimovFRABbox Bouygues Telecom04:28:28  +  00:06:55=40,564 
148 JPNYukiya ArashiroFRABbox Bouygues Telecom04:28:28  +  00:06:55=40,564 
149 FRASaid HaddouFRABbox Bouygues Telecom04:28:28  +  00:06:55=40,564 
150 FRAThomas VoecklerFRABbox Bouygues Telecom04:28:28  +  00:06:55=40,564 
151 ESPIñigo CuestaCHECervelo Test Team04:28:28  +  00:06:55=40,564 
152 FRABenoit VaugrenardFRAFrancaise Des Jeux04:28:28  +  00:06:55=40,564 
153 GERAndreas KlierCHECervelo Test Team04:28:28  +  00:06:55=40,564 
154 ESPJosé Ángel GomezCHECervelo Test Team04:28:28  +  00:06:55=40,564 
155 BELTom BoonenBELQuick Step04:28:28  +  00:06:55=40,564 
156 ESPKoldo FernándezESPEuskaltel - Euskadi04:28:28  +  00:06:55=40,564 
157 AUSHeinrich HausslerCHECervelo Test Team04:28:28  +  00:06:55=40,564 
158 RUSMikhail IgnatyevRUSTeam Katusha04:29:47  +  00:08:14=40,366 
159 ITAMauro SantambrogioITALampre-N.G.C04:29:47  +  00:08:14=40,366 
160 ITAAngelo FurlanITALampre-N.G.C04:29:47  +  00:08:14=40,366 
161 BELStaf ScheirlinckxBELSilence-Lotto04:29:47  +  00:08:14=40,366 
162 BLRYauheni HutarovichFRAFrancaise Des Jeux04:29:47  +  00:08:14=40,366 
163 AUSMark RenshawUSATeam Columbia-HTC04:29:47  +  00:08:14=40,366 
164 NEDStef ClementNLDRabobank04:29:47  +  00:08:14=40,366 
165 ITAFabio SabatiniITALiquigas04:29:47  +  00:08:14=40,366 
166 ESPJoan HorrachRUSTeam Katusha04:29:47  +  00:08:14=40,366 
167 FRAWilliam BonnetFRABbox Bouygues Telecom04:29:47  +  00:08:14=40,366 
168 ITADanilo NapolitanoRUSTeam Katusha04:29:47  +  00:08:14=40,366 
169 USADanny PateUSAGarmin-Slipstream04:29:47  +  00:08:14=40,366 
170 NEDAlbert TimmerNLDSkil-Shimano04:31:47  +  00:10:14=40,069 
171 USATyler FarrarUSAGarmin-Slipstream04:31:47  +  00:10:14=40,069 
172 JPNFumiyuki BeppuNLDSkil-Shimano04:31:47  +  00:10:14=40,069 
173 FRAChristophe KernFRACofidis Le Credit En Ligne04:31:47  +  00:10:14=40,069 
174 AUSMichael RogersUSATeam Columbia-HTC04:34:47  +  00:13:14=39,631 
175 NEDKenny van HummelNLDSkil-Shimano04:37:31  +  00:15:58=39,241 
176 FRAJonathan HivertNLDSkil-Shimano04:37:31  +  00:15:58=39,241 


Todays birthdays.

1870  Hippolyte Pagie
1884  Henri Devroye
1886  Ernest Ricaux
1896  Andre Zonnequin
1897  Jean Kienlen
1903  Robert Brugére
1930  Fred De Bruyne
1930  Jean-Claude Grèt
1932  Vito Favero
1932  Norbert Kerckhove
1946  Ronald De Witte
1967  Johan Verstrepen
1969  Orlando Sergio Gomes